Theta_e
330 330 328 328 329 330 330 330 330 329 330 331 331 331 331 332 333 331 331 333 333 333 332 332 332 333 333 334 335 333 333 334 333 333 334 334 336 335 333 333 333 334
329 330 329 329 329 330 330 331 329 330 331 332 332 332 332 333 333 331 331 331 333 333 333 333 333 334 334 333 333 331 331 333 332 332 332 332 332 332 333 334 332 332
329 329 329 328 328 328 329 330 330 330 331 332 333 332 330 331 331 332 332 333 333 334 334 334 335 335 334 334 334 333 333 334 333 334 333 332 332 332 334 334 332 330
329 329 330 330 329 328 328 329 329 330 331 331 331 332 332 332 331 332 333 334 334 334 334 334 335 335 335 334 333 332 331 332 333 334 334 334 333 334 335 336 334 331
329 329 330 330 331 329 328 327 328 329 329 330 331 332 330 331 331 331 331 332 333 334 334 334 334 332 333 333 332 330 330 331 332 334 334 334 335 335 336 336 335 335
328 328 329 329 330 330 328 327 327 328 328 330 330 331 330 331 332 331 332 332 332 332 332 333 332 332 332 331 329 329 330 332 333 335 335 335 335 335 333 335 335 334
329 329 329 329 330 331 330 328 328 327 328 328 330 330 331 331 333 334 334 332 332 332 332 333 332 331 331 330 329 330 333 335 335 335 334 335 335 334 334 335 334 333
328 328 328 328 328 329 329 328 327 326 327 328 329 332 333 333 333 333 333 333 332 333 334 334 333 332 332 331 331 331 334 336 335 334 333 334 335 334 335 334 336 334
327 327 326 328 329 330 329 328 328 327 329 329 330 331 331 332 333 332 332 332 333 333 333 334 334 334 334 334 333 333 333 334 335 334 333 334 334 334 333 334 334 334
324 325 326 328 328 330 329 329 329 328 328 330 330 331 330 331 331 329 329 330 332 332 332 333 333 334 334 335 335 334 333 333 334 334 333 333 333 334 333 334 334 334
322 324 325 327 327 328 328 328 328 329 329 329 329 328 328 327 326 325 327 328 330 331 331 332 333 333 333 333 334 335 333 333 333 333 334 333 334 334 333 334 334 333
322 323 323 324 326 327 328 328 328 328 328 329 329 327 326 326 324 324 326 326 328 329 330 331 332 332 332 332 332 333 334 334 334 334 333 332 333 333 334 334 334 333
321 322 324 325 325 326 328 328 327 328 327 327 328 327 326 325 324 323 323 325 325 328 330 331 331 331 332 332 331 331 332 331 331 331 330 331 331 332 333 333 334 333
320 321 323 324 326 327 327 327 327 327 327 328 327 326 326 326 325 324 323 324 324 325 326 329 329 329 329 330 330 330 329 329 329 329 328 329 330 330 331 332 332 333
319 322 322 323 324 325 326 326 326 326 326 327 327 327 326 324 324 324 323 322 322 323 322 324 326 327 328 328 327 327 328 327 327 327 328 327 327 327 328 328 328 329
317 320 322 323 323 323 324 324 325 325 325 325 325 326 325 323 320 321 322 322 322 321 322 323 322 321 312 309 316 326 327 326 327 327 327 327 326 326 326 326 326 324
316 318 321 321 321 321 322 321 322 323 322 322 322 322 323 321 320 318 318 319 320 321 321 320 319 311 298 295 302 309 324 327 326 326 327 327 327 326 324 323 323 321
316 317 318 319 319 319 318 318 317 318 318 318 319 319 317 318 317 314 315 317 319 319 319 318 315 300 294 296 301 305 313 327 327 326 326 327 326 325 323 323 323 324
314 315 316 317 317 317 317 316 315 315 315 315 314 314 313 311 311 313 314 317 318 317 316 315 313 296 296 297 299 301 306 317 326 326 326 326 325 324 323 323 323 323
313 313 314 314 314 314 314 313 312 311 311 311 310 310 310 310 311 311 313 315 316 315 314 313 310 298 296 298 299 300 304 313 326 326 326 326 325 325 325 325 325 324
312 312 311 310 310 309 309 309 309 308 307 307 306 306 305 306 306 306 306 308 311 314 314 312 307 294 295 295 297 301 304 311 326 326 325 325 325 326 325 325 325 325
311 310 309 308 307 307 306 304 304 304 305 305 304 304 304 305 306 306 304 305 306 308 310 310 307 293 294 295 297 300 306 323 324 324 322 321 320 320 321 321 322 322
309 309 308 306 305 304 304 304 303 302 303 304 302 302 302 302 301 302 303 304 305 305 306 305 305 297 294 295 297 301 310 320 319 318 318 317 316 316 314 314 314 315
308 308 307 305 304 303 303 304 304 303 302 303 302 300 300 300 300 300 300 300 300 301 303 304 303 297 294 296 298 299 305 313 311 310 307 305 306 306 307 306 305 304
305 306 306 304 302 302 302 302 302 302 302 303 302 301 300 300 300 298 297 298 298 298 300 300 300 298 293 294 296 299 309 315 312 309 305 302 302 303 304 305 303 300
304 304 304 303 302 302 302 302 302 302 302 301 301 300 299 299 298 297 296 296 297 297 296 297 298 297 294 292 294 295 300 310 309 307 303 304 306 307 306 306 305 303
Wind_Speed
5 3 4 6 6 7 7 6 5 8 9 8 7 5 7 8 7 9 8 7 8 9 9 9 8 8 8 9 8 7 6 6 8 7 8 8 6 6 8 10 7 6
5 4 4 5 5 5 6 5 7 8 9 7 6 6 7 6 10 10 8 10 10 11 10 8 10 11 10 8 7 7 6 8 9 7 7 9 7 8 8 8 10 7
4 4 4 5 6 7 9 9 8 7 8 6 7 7 6 7 9 10 9 10 10 10 10 10 10 9 8 7 7 7 7 7 7 7 8 9 8 7 8 8 6 5
4 5 7 8 9 10 9 8 6 5 5 5 6 6 6 6 8 9 8 9 9 9 9 9 8 7 8 7 6 5 3 4 5 6 6 6 7 8 7 7 8 9
6 6 6 8 10 11 9 8 7 5 4 6 8 6 4 4 5 5 4 6 7 8 8 8 8 8 8 7 8 7 8 7 7 7 7 7 7 6 5 6 7 7
5 6 6 6 8 10 10 10 8 7 5 4 7 7 5 3 5 7 8 8 8 8 8 9 9 7 7 8 8 7 7 7 6 8 7 6 5 5 4 6 7 7
5 4 5 5 7 8 9 11 9 8 8 7 7 8 8 9 9 9 9 9 8 8 8 10 10 9 7 6 5 6 6 6 6 6 7 6 5 6 5 6 6 6
5 4 4 4 3 6 9 8 9 7 7 8 10 11 9 10 10 9 8 8 7 8 8 9 10 10 7 6 7 8 8 5 6 7 7 7 6 6 5 4 5 6
4 4 4 2 4 7 8 8 7 6 4 5 8 7 8 8 8 6 7 8 8 7 8 8 9 11 10 10 10 10 8 6 6 7 7 7 7 7 6 5 5 5
5 5 4 5 6 5 7 6 6 7 6 7 6 5 6 5 1 1 2 5 7 8 8 7 8 8 8 8 8 8 8 8 7 6 7 7 7 6 6 6 6 6
5 5 5 7 6 5 5 5 6 7 8 10 9 7 5 4 4 3 2 4 5 7 7 7 7 8 8 7 6 6 7 7 7 6 6 6 5 5 5 6 6 6
7 4 4 5 6 5 5 4 5 6 7 6 7 7 7 6 7 6 5 6 5 5 6 6 6 7 8 8 7 6 5 5 5 5 5 4 4 4 5 5 5 5
8 7 5 6 5 5 4 4 5 5 6 7 7 6 7 7 7 7 6 6 2 2 5 6 6 6 6 6 7 6 6 6 5 5 5 4 4 4 4 4 4 5
8 6 6 6 6 5 4 4 4 5 6 6 7 6 6 7 6 6 5 4 2 2 3 3 5 5 5 5 6 6 6 6 6 6 6 5 5 5 5 4 4 4
8 7 6 6 5 4 4 4 4 4 5 6 6 5 5 6 7 5 2 5 4 3 4 3 3 4 4 5 6 5 5 6 6 6 6 6 6 6 5 5 4 4
9 7 7 6 4 2 2 3 3 3 4 5 6 5 6 6 6 6 3 5 5 4 4 3 3 2 3 1 5 6 6 5 5 6 6 7 7 7 6 6 6 6
10 9 7 6 5 4 4 3 4 5 4 4 4 4 5 6 5 6 5 4 4 5 5 4 3 4 7 2 5 8 7 7 7 6 7 7 8 8 8 7 7 8
11 10 8 8 7 6 4 5 7 4 4 4 5 6 6 6 6 7 6 4 5 6 6 4 4 7 4 2 7 7 6 7 7 7 7 7 8 8 8 7 8 7
11 11 10 10 9 6 6 6 6 6 5 6 8 6 6 8 7 6 6 5 6 7 6 5 5 8 5 2 6 9 8 8 6 7 7 8 8 9 8 7 6 6
11 11 11 11 9 7 7 7 8 8 7 6 6 7 8 7 8 7 5 6 6 7 7 7 7 7 8 8 5 6 9 6 7 7 7 8 9 8 7 7 6 6
13 12 12 11 10 9 8 9 8 6 7 6 6 8 8 8 8 8 7 7 7 6 8 9 7 9 9 9 9 6 4 8 7 7 7 7 6 6 6 5 5 5
13 12 11 11 10 10 10 9 8 8 7 5 9 9 8 9 10 8 8 9 8 8 8 11 9 12 8 9 9 8 5 5 6 6 7 7 7 7 6 5 4 4
13 12 12 11 11 11 12 12 10 8 7 5 8 9 9 9 10 8 7 9 10 9 9 8 8 11 11 12 12 10 7 7 7 7 7 8 7 6 5 6 6 5
12 12 11 12 12 11 12 11 11 9 9 7 6 10 11 9 9 8 9 9 10 11 10 9 9 11 12 14 16 16 12 10 8 8 8 7 7 7 7 8 11 16
12 11 12 12 12 11 10 11 11 11 9 9 8 8 10 7 9 9 10 11 10 10 15 12 10 11 14 11 13 12 9 6 7 7 7 6 6 7 6 5 6 10
12 12 12 12 12 11 10 11 10 10 11 11 10 9 9 9 8 10 13 10 10 11 11 11 11 10 12 14 13 12 9 6 3 7 7 5 4 5 6 5 5 5
Wind_Direction
271 240 267 268 264 262 256 245 249 261 258 250 246 237 233 215 201 192 190 172 182 181 178 175 180 194 198 201 193 184 190 199 183 199 197 197 197 198 197 192 190 198
277 259 208 215 246 255 251 237 240 253 254 237 241 240 231 216 207 195 189 198 195 192 183 180 184 196 190 187 182 183 182 200 195 178 184 198 180 206 212 186 192 185
243 232 216 211 215 223 229 220 228 236 252 244 243 237 219 215 206 200 197 199 195 192 190 189 188 184 180 183 178 187 198 198 194 180 193 199 205 203 204 181 191 195
244 206 196 201 201 205 204 208 208 233 278 261 242 235 221 205 194 196 195 193 192 187 188 182 178 171 178 173 172 174 148 217 215 199 193 190 193 208 196 192 169 195
289 254 226 206 199 207 198 198 207 198 219 250 258 232 230 193 185 185 167 187 193 190 180 172 162 174 169 157 162 171 183 193 197 195 189 187 190 192 185 179 176 179
300 288 263 240 218 200 188 198 194 185 183 225 241 238 215 242 197 195 192 186 191 188 177 160 171 173 165 165 168 179 187 195 181 191 183 174 168 180 173 180 174 175
307 290 267 257 241 217 198 188 181 174 170 189 219 226 208 209 211 202 195 191 183 180 172 167 165 161 168 162 163 176 193 187 173 184 184 171 168 168 175 175 175 172
301 280 247 218 230 224 216 195 176 178 168 191 210 218 206 204 203 200 196 181 178 177 172 159 158 159 169 164 172 178 186 175 172 182 184 171 174 173 164 175 171 177
288 270 268 238 206 208 203 194 171 160 175 209 222 207 207 210 203 190 190 183 177 173 167 159 160 158 167 174 176 177 171 170 175 179 179 173 183 180 175 167 174 176
292 268 267 259 238 222 208 185 151 157 165 195 213 213 204 213 190 177 199 188 174 168 166 163 159 156 160 168 170 171 169 167 172 175 181 186 185 177 168 174 181 179
310 273 245 245 237 233 233 211 182 181 187 195 178 169 150 125 98 93 253 257 209 165 160 159 159 156 157 161 163 167 170 164 166 169 177 176 169 161 163 176 176 182
337 306 260 246 247 240 229 220 209 198 188 182 177 166 163 154 148 144 153 235 224 157 150 150 151 155 160 162 162 164 158 150 149 150 153 155 153 160 166 169 177 172
343 324 305 277 261 255 243 230 219 202 184 175 179 168 156 152 150 160 149 200 229 138 143 143 143 147 148 151 153 153 149 143 139 140 140 134 138 143 149 161 169 171
338 333 315 302 288 274 253 238 224 202 186 175 174 158 157 152 153 148 137 143 125 122 96 114 131 138 141 146 146 145 142 142 145 141 134 126 124 125 129 139 154 164
338 340 337 315 300 284 261 242 229 198 178 172 167 148 123 113 92 72 115 123 125 110 107 106 130 136 151 150 143 141 140 146 148 145 140 132 125 119 118 118 121 92
343 344 344 337 325 305 259 241 234 190 156 163 160 142 126 108 113 124 141 123 124 107 105 101 87 70 20 39 148 147 147 139 136 139 141 137 131 123 112 103 97 87
0 354 1 10 357 26 34 34 47 46 40 55 57 76 88 94 103 99 81 74 96 110 98 85 69 42 359 333 126 135 139 141 141 137 138 138 134 129 122 114 105 102
11 9 13 22 38 56 69 69 80 68 41 57 66 63 66 67 61 67 73 71 82 85 75 63 59 10 348 216 143 136 137 134 135 139 141 137 130 123 120 115 111 106
18 19 25 32 35 33 38 49 60 62 42 54 68 61 68 70 59 63 79 81 82 80 70 55 52 12 56 98 136 130 128 133 135 140 139 130 124 118 116 118 119 114
23 26 32 38 35 28 29 43 50 55 43 37 55 54 61 61 61 46 40 66 81 88 78 62 52 23 64 80 89 130 132 120 132 126 124 122 121 118 119 126 129 128
24 31 32 35 38 35 34 39 42 46 60 50 46 49 44 51 45 46 32 29 27 60 81 70 51 28 67 82 88 76 82 119 118 110 104 97 93 98 104 106 113 113
25 33 37 34 33 38 44 44 38 35 37 48 76 72 54 54 55 49 44 47 36 36 67 77 48 24 45 67 77 83 67 88 91 93 97 99 98 99 97 92 83 82
27 34 40 39 36 39 44 46 41 35 27 17 69 67 72 62 53 47 38 45 48 48 48 54 48 22 43 57 50 50 79 78 64 69 88 91 88 95 71 63 51 46
25 36 44 48 44 41 43 45 45 43 41 25 61 89 69 67 69 54 49 41 41 40 37 53 42 22 36 67 72 56 58 71 70 70 65 58 65 50 54 55 47 36
30 39 45 50 50 43 40 43 44 45 40 44 45 62 81 68 72 70 61 50 41 37 37 44 41 23 20 43 66 79 81 80 88 94 85 78 82 73 55 66 66 51
40 43 46 48 48 43 41 42 42 46 42 45 48 49 63 65 65 66 64 54 47 41 43 41 39 28 18 23 50 55 71 99 89 99 103 95 76 77 88 64 65 65